Tracking 28081 objects as of 27-Sep-2023
HD Live streaming from Space Station
objects crossing your sky now

STARLINK-3881

Track STARLINK-3881 now!
10-day predictions
STARLINK-3881 is classified as:


NORAD ID: 52472
Int'l Code: 2022-049X
Perigee: 545.8 km
Apogee: 548.0 km
Inclination: 53.2 °
Period: 95.4 minutes
Semi major axis: 6917 km
RCS: Unknown
Launch date: May 6, 2022
Source: United States (US)
Launch site: AIR FORCE EASTERN TEST RANGE (AFETR)
Your satellite tracking list
Your tracking list is empty




NASA's NSSDC Master Catalog

Two Line Element Set (TLE):
1 52472U 22049X   23269.86836169 -.00001154  00000-0 -54431-4 0  9990
2 52472  53.2163 116.1283 0001552 102.0318 258.0848 15.08833539 77321
Source of the keplerian elements: AFSPC